Regional Weather Roundup
Issued by NWS

Home | Current Version | Previous Version | Text Only | Print | Product List | Glossary Off
Versions: 1 2 3 4 5 6 7 8 9 10 11 12 13 14 15 16 17 18 19 20 21 22 23 24 25 26 27 28 29 30 31 32 33 34 35 36 37 38 39 40 41 42 43 44 45 46 47 48 49 50

000
ASUS45 KCYS 211610
RWRWY

WYOMING REGIONAL WEATHER ROUNDUP
NATIONAL WEATHER SERVICE CHEYENNE WY
1000 AM MDT THU AUG 21 2014

NOTE:  "FAIR" INDICATES FEW OR NO CLOUDS BELOW 12,000 FEET
WITH NO SIGNIFICANT WEATHER AND/OR OBSTRUCTIONS TO VISIBILITY.

WYZ001-211700-
YELLOWSTONE NATIONAL PARK

CITY           SKY/WX    TMP DP  RH WIND       PRES   REMARKS
LK YELLOWSTONE   N/A     48  45  89 CALM      30.23R
W YELLOWSTONE  NOT AVBL

$$
WYZ002>013-054>058-071-098>099-211700-
NORTHERN WYOMING

CITY           SKY/WX    TMP DP  RH WIND       PRES   REMARKS
JACKSON        CLOUDY    52  52 100 SW3       30.17R
CODY           CLOUDY    59  50  72 N6        30.08S
GREYBULL       PTSUNNY   66  52  60 SW3       30.01S
WORLAND        PTSUNNY   69  47  45 VRB5      30.03S
SHERIDAN       PTSUNNY   70  51  51 N7        30.03F
BUFFALO        MOSUNNY   65  49  56 N13       30.08R
GILLETTE       MOSUNNY   68  53  58 N3        30.03S
HULETT         FAIR      70  54  56 MISG      30.03
NEWCASTLE      FAIR      73  50  43 MISG      30.02

$$
WYZ014>020-022>026-101>103-211700-
CENTRAL WYOMING

CITY           SKY/WX    TMP DP  RH WIND       PRES   REMARKS
BIG PINEY      CLOUDY    52  49  89 SW6       30.22R
PINEDALE       CLOUDY    52  48  87 SE10      30.22R
DUBOIS         DRIZZLE   50  45  81 NW12      30.17R
LANDER         PTSUNNY   67  44  43 CALM      30.08R
RIVERTON       PTSUNNY   65  44  46 SE5       30.08F
CASPER         SUNNY     70  43  37 SW17G24   30.08R
DOUGLAS        SUNNY     74  44  34 N5        30.06F

$$
WYZ021-027>030-104>119-211700-
SOUTHERN WYOMING

CITY           SKY/WX    TMP DP  RH WIND       PRES   REMARKS
EVANSTON       PTSUNNY   57  50  77 W9        30.23R
KEMMERER       CLOUDY    55  50  82 W10       30.24R
FORT BRIDGER   CLOUDY    60  51  73 SW3       30.24S
ROCK SPRINGS   PTSUNNY   57  45  64 CALM      30.22R
DIXON          FAIR      63  51  65 SW5       30.24S
RAWLINS        MOSUNNY   64  45  49 SW10      30.21S
SARATOGA       FAIR      63  46  55 MISG      30.24S
LARAMIE        MOSUNNY   64  43  46 SW10      30.22S
CHEYENNE       SUNNY     73  44  35 W10       30.14S
TORRINGTON     MOSUNNY   77  49  37 NW10      30.02R
PINE BLUFFS    FAIR      73  43  33 NW13G20   30.10R

$$



USA.gov is the U.S. government's official web portal to all federal, state and local government web resources and services.